Flag for U.S.A. Weather past 2 weeks in Gainesville, Florida, U.S.A.

Now
77 °F

Passing clouds.


Feels Like: 78 °F
Forecast: 72 / 87 °F
Wind: 3 mph from Southwest

Location: Gainesville Regional Airport

Current Time: Sep 2, 2015 at 6:47:51 AM

Latest Report: Sep 2, 2015 at 5:53 AM


Visibility: 10 mi

Pressure: 30.03 "Hg

Humidity: 94%

Dew point: 75 °F

Location of GainesvilleLocation

Historic Weather in Gainesville — Graph

°F

Gainesville temperature yesterday

Maximum temperature yesterday: 87 °F (at 1:53 PM)
Minimum temperature yesterday: 74 °F (at 2:53 AM)
Average temperature yesterday: 79 °F

Past Weeks' High & Low Weather Summary

 TemperatureHumidityPressure
High93 °F (Aug 21, 1:53 PM)100% (Aug 31, 4:01 AM)30.10 "Hg (Aug 31, 4:01 AM)
Low71 °F (Aug 18, 5:53 AM)46% (Aug 25, 1:53 PM)29.85 "Hg (Aug 25, 5:53 PM)
Average80 °F83%29.99 "Hg
* Reported Aug 18 5:53 AM — Sep 2 5:53 AM, Gainesville, Weather by CustomWeather, © 2015

Note: Actual official high and low records may vary slightly from our data, if they occured in-between our weather recording intervals... More about our weather records

Advertising

Gainesville weather history for previous 24 hours

 ConditionsComfort  
Time TempWeatherWind HumidityBarometerVisibility
5:53 AM
Wed, Sep 2
77 °FPassing clouds.3 mph94%30.03 "Hg10 mi
4:53 AM77 °FPassing clouds.3 mph94%30.03 "Hg10 mi
3:53 AM77 °FPassing clouds.No wind94%30.03 "Hg10 mi
2:53 AM76 °FPassing clouds.No wind97%30.04 "Hg10 mi
1:53 AM76 °FClear.No wind97%30.06 "Hg10 mi
12:53 AM76 °FClear.No wind94%30.07 "Hg10 mi
11:53 PM
Tue, Sep 1
75 °FClear.No wind94%30.08 "Hg10 mi
10:53 PM75 °FClear.No wind96%30.06 "Hg10 mi
9:53 PM77 °FClear.No wind90%30.07 "Hg10 mi
8:53 PM77 °FClear.No wind90%30.05 "Hg10 mi
7:53 PM80 °FSunny.5 mph79%30.03 "Hg10 mi
7:00 PM83 °FPartly sunny.7 mph79%30.04 "Hg10 mi
4:53 PM83 °FSunny.5 mph79%30.04 "Hg10 mi
3:53 PM81 °FThundershowers. Sunny.6 mph82%30.06 "Hg10 mi
2:53 PM86 °FSunny.No wind70%30.05 "Hg10 mi
1:53 PM87 °FSunny.7 mph65%30.06 "Hg10 mi
12:53 PM85 °FPassing clouds.8 mph72%30.07 "Hg10 mi
11:53 AM84 °FBroken clouds.5 mph77%30.09 "Hg10 mi
11:01 AM82 °FScattered clouds.No wind79%30.10 "Hg10 mi
9:53 AM80 °FPartly sunny.6 mph87%30.07 "Hg10 mi
8:53 AM76 °FPartly sunny.No wind97%30.07 "Hg10 mi
8:01 AM75 °FFog.No wind96%30.08 "Hg2 mi
6:53 AM74 °FFog.No wind97%30.04 "Hg1 mi
Weather by CustomWeather, © 2015

See weather overviewHow to use our weather pages